This is the latest recevied weather packets stored in our database for station/object EB2BAG-11. If no packets are shown the sender has not sent any weather packets the latest 10 day(s).
| Time | Temp. | Humidity | Pressure | Rain* | Wind** | Luminosity | Snow |
|---|---|---|---|---|---|---|---|
| 1777770950 | 15.56° C | 81% | 1014.5 hPa | - | - | - | - |
| 1777769750 | 17.22° C | 75% | 1014.7 hPa | - | - | - | - |
| 1777768550 | 17.22° C | 72% | 1014.7 hPa | - | - | - | - |
| 1777767350 | 17.78° C | 69% | 1014.7 hPa | - | - | - | - |
| 1777766150 | 18.33° C | 67% | 1014.5 hPa | - | - | - | - |
| 1777764949 | 17.78° C | 66% | 1014.4 hPa | - | - | - | - |
| 1777763749 | 17.78° C | 64% | 1014.6 hPa | - | - | - | - |
| 1777762549 | 18.33° C | 64% | 1014.4 hPa | - | - | - | - |
| 1777761349 | 17.78° C | 67% | 1014.1 hPa | - | - | - | - |
| 1777760149 | 17.78° C | 67% | 1014.3 hPa | - | - | - | - |
| 1777758949 | 17.22° C | 78% | 1014.4 hPa | - | - | - | - |
| 1777757749 | 16.67° C | 82% | 1014.4 hPa | - | - | - | - |
| 1777756549 | 17.78° C | 79% | 1014.5 hPa | - | - | - | - |
| 1777755349 | 16.67° C | 81% | 1014.5 hPa | - | - | - | - |
| 1777754149 | 17.22° C | 76% | 1014.3 hPa | - | - | - | - |
| 1777752949 | 16.67° C | 76% | 1014.1 hPa | - | - | - | - |
| 1777751748 | 17.22° C | 80% | 1014.7 hPa | - | - | - | - |
| 1777750548 | 16.67° C | 81% | 1014.7 hPa | - | - | - | - |
| 1777749348 | 17.22° C | 79% | 1015.3 hPa | - | - | - | - |
| 1777748148 | 17.78° C | 77% | 1014.8 hPa | - | - | - | - |
| 1777746948 | 17.78° C | 74% | 1014.5 hPa | - | - | - | - |
| 1777745748 | 17.78° C | 69% | 1014.3 hPa | - | - | - | - |
| 1777744547 | 17.78° C | 69% | 1014.5 hPa | - | - | - | - |
| 1777743347 | 18.33° C | 68% | 1014.4 hPa | - | - | - | - |
| 1777742147 | 18.33° C | 73% | 1014.5 hPa | - | - | - | - |
* Rain since midnight (hover to see other rain measurements)
** Current wind speed in m/s (hover to see current wind gust speed)